Theta_e
316 321 322 323 322 320 319 318 319 321 322 323 322 324 326 324 324 324 322 318 314 317 320 318 317 316 316 318 314 310 311 310 310 311 311 311 311 310 309 308 308 308 309 309 309 308 308 310 311 310 310 313 317 317 316 317 317 317 317 317 318 319 319 319 318 319 319 318 317 316 317 317 318 319 318 318 318 318 318 317 317 315 313 312 311 311
317 321 322 323 320 318 319 319 317 318 319 319 320 321 323 323 323 323 321 318 315 317 323 321 319 318 318 319 315 311 310 310 310 311 310 311 311 310 310 308 308 308 308 308 308 307 308 310 310 310 311 314 316 315 316 318 318 317 316 316 317 317 318 318 317 318 318 316 315 315 316 317 317 318 317 316 316 315 313 311 310 308 307 306 305 304
319 321 319 318 317 316 320 319 318 318 318 320 321 320 322 325 324 323 321 318 316 318 325 326 321 319 319 319 316 311 310 311 311 312 312 312 311 310 310 309 308 308 307 307 307 307 308 310 310 310 312 314 314 313 315 317 318 317 316 315 315 315 315 315 315 315 314 315 315 316 317 316 316 315 313 311 310 308 306 305 304 304 303 303 302 301
323 324 320 315 316 318 320 320 319 319 319 322 322 320 324 326 323 325 323 318 317 318 321 323 321 318 317 318 318 314 311 312 312 312 312 311 311 310 310 310 309 308 308 308 307 307 308 310 310 311 313 313 313 313 314 315 315 315 315 315 315 314 314 315 315 314 314 316 316 316 315 313 311 309 308 306 304 304 304 303 302 302 301 301 301 300
322 324 319 315 317 319 320 320 320 320 321 325 325 323 324 325 323 324 323 320 321 323 320 319 321 323 322 320 319 315 311 311 311 311 311 311 311 311 310 310 309 309 309 308 308 307 308 309 310 311 312 313 313 314 314 314 314 314 314 314 314 314 315 315 315 315 315 315 315 314 311 308 306 305 304 304 303 302 302 302 301 300 300 300 300 300
319 318 318 320 320 320 320 321 323 324 323 324 327 325 322 323 324 324 324 323 327 330 324 320 326 332 331 325 322 318 313 313 312 309 310 311 310 310 309 309 309 309 309 308 308 308 308 308 310 311 312 313 313 314 315 315 314 314 314 313 313 314 315 315 314 313 313 313 312 309 307 306 305 304 302 302 302 301 301 301 300 300 299 299 299 299
319 317 319 322 322 323 322 320 325 325 322 323 326 327 324 322 323 323 323 323 328 331 324 321 327 330 327 324 324 323 318 316 313 309 309 309 310 310 309 309 309 308 308 308 307 307 308 308 309 311 312 312 313 314 315 314 314 314 314 313 314 314 313 312 311 310 310 309 307 306 305 306 306 304 302 301 301 301 301 300 300 299 299 298 299 298
320 319 321 322 323 325 322 322 325 323 323 327 326 327 328 323 323 324 324 325 329 329 323 322 325 325 323 323 323 322 321 318 314 311 309 307 308 309 308 309 309 309 308 308 307 307 307 308 309 311 312 312 313 314 314 314 314 314 313 314 314 313 311 310 309 308 307 306 305 304 305 304 304 304 302 300 300 300 300 300 299 299 298 298 298 297
319 321 323 323 322 324 323 325 327 322 323 327 324 326 329 327 327 327 326 325 326 325 323 323 323 324 326 326 321 318 320 319 316 313 309 307 308 308 308 308 308 308 308 307 307 307 307 308 310 311 312 313 314 313 313 313 313 313 313 313 312 310 309 307 306 305 305 304 304 304 304 303 302 302 302 300 300 300 299 299 299 298 298 297 297 297
320 319 320 322 323 324 325 326 325 324 322 321 321 326 329 328 328 327 326 326 324 324 324 324 323 324 327 327 322 317 319 320 318 315 311 307 307 308 307 308 307 307 307 306 306 306 307 308 311 312 312 313 314 313 313 312 312 313 313 312 310 308 306 305 304 304 303 303 303 303 303 303 302 301 301 300 299 299 298 298 298 297 297 297 296 296
318 314 315 320 321 319 321 319 317 320 319 318 323 328 329 328 328 328 327 324 324 324 325 325 324 323 327 328 325 320 321 321 318 317 313 308 307 307 307 307 307 306 306 306 305 306 307 308 311 313 312 313 314 313 313 312 312 312 311 309 307 306 305 304 303 303 303 302 302 302 301 302 301 301 300 300 299 299 298 298 297 297 297 296 296 296
316 317 317 317 316 315 320 318 315 317 316 319 328 329 326 327 328 327 323 321 325 326 325 324 322 321 325 330 327 320 320 320 319 320 318 310 306 307 307 307 307 306 306 305 305 305 306 309 312 313 312 313 313 313 312 312 312 311 309 307 306 305 304 303 303 302 302 301 301 300 300 300 300 300 300 300 299 299 298 297 297 297 296 296 296 295
319 322 319 316 315 316 322 323 319 320 319 321 327 326 325 325 326 327 323 322 324 323 320 320 320 321 322 324 324 320 319 319 317 316 316 310 306 306 307 307 306 306 306 305 305 305 305 308 311 312 312 312 313 313 312 312 310 308 306 305 304 303 303 302 302 302 301 300 300 299 299 299 299 299 299 299 299 298 297 297 297 296 296 296 295 295
324 323 319 318 317 316 320 322 321 321 320 321 322 324 326 325 326 329 326 324 325 324 319 316 319 323 322 322 322 320 317 315 312 312 314 312 310 308 307 306 306 305 305 305 304 304 305 307 310 310 311 312 313 313 312 310 308 306 305 304 303 303 302 302 301 301 300 300 299 298 298 298 299 299 298 298 298 298 297 297 297 296 296 296 295 295
324 324 322 320 318 317 318 319 322 322 319 318 320 323 325 327 330 331 328 326 327 326 320 315 319 325 326 325 320 314 311 310 311 312 313 312 311 309 306 305 306 305 305 304 304 304 305 307 309 310 310 311 312 312 309 307 305 304 304 303 303 302 302 301 301 300 300 299 298 298 298 298 298 298 298 297 297 297 297 296 296 296 295 295 295 294
321 325 325 318 316 318 318 317 319 321 319 319 322 323 323 326 329 327 325 323 322 323 320 317 322 326 323 321 316 309 308 309 310 310 310 309 308 307 306 305 305 305 304 304 303 304 305 307 309 310 310 311 311 309 307 305 304 303 303 303 302 302 302 301 300 300 299 298 298 298 298 298 298 297 297 297 297 297 296 296 296 296 295 295 294 294
322 325 322 315 315 316 316 317 316 318 322 320 320 322 321 323 325 325 324 320 318 323 322 319 323 323 319 319 317 312 312 311 309 307 307 306 306 305 305 304 304 304 304 304 304 304 305 307 308 309 309 309 308 307 305 304 303 303 303 302 302 301 301 301 300 299 298 298 298 298 298 298 297 297 297 297 297 297 296 296 296 295 295 294 294 294
325 325 319 316 319 315 311 316 315 314 319 321 321 320 319 322 324 326 326 323 322 325 323 321 323 322 320 321 318 314 315 316 312 309 306 304 304 305 304 304 304 304 304 304 304 304 305 307 308 308 308 307 306 305 304 303 303 302 302 302 302 301 301 301 300 299 298 298 298 298 297 297 297 297 297 297 297 296 296 296 295 295 295 294 294 293
324 325 320 315 318 315 311 316 318 315 314 318 320 318 320 326 325 324 325 325 326 325 325 324 322 321 320 321 320 316 317 319 315 311 308 305 304 304 304 304 304 304 303 303 303 304 305 307 307 307 307 306 305 304 303 303 302 302 301 301 301 301 300 300 299 298 298 297 297 297 297 296 296 296 296 296 296 296 296 295 295 295 294 294 293 293
324 325 323 315 315 316 314 317 321 319 315 315 316 315 320 325 323 323 324 324 326 326 326 326 323 322 320 320 322 321 318 317 315 312 310 306 304 304 304 304 303 304 304 303 304 304 305 306 306 306 305 305 304 303 303 302 302 301 301 301 300 300 299 299 299 298 297 297 297 297 296 296 296 296 296 296 296 296 295 295 295 295 294 294 293 293
322 323 324 316 313 316 317 318 320 320 317 317 318 318 319 319 320 323 322 322 325 325 326 326 324 326 325 319 319 320 318 315 313 313 310 305 304 305 305 304 304 304 304 304 304 304 305 306 305 305 304 304 303 303 302 302 301 301 301 300 300 299 299 299 298 297 297 296 296 296 296 296 296 296 296 296 295 295 295 295 295 294 294 293 293 292
322 324 326 320 315 317 320 319 316 317 318 317 317 318 319 318 320 323 322 321 322 323 327 326 323 327 327 320 316 318 317 313 310 311 309 306 305 306 305 305 305 305 305 304 304 304 305 305 305 304 304 303 303 302 302 301 301 301 300 300 300 299 299 298 298 297 296 296 296 296 296 296 296 296 295 295 295 295 295 294 294 294 293 293 293 292
321 325 326 322 317 316 318 317 313 314 316 316 318 319 319 318 319 322 323 323 321 321 323 323 323 323 319 317 319 316 313 311 308 308 308 307 307 306 306 306 305 306 305 304 304 304 305 305 305 304 303 303 302 302 301 301 301 301 300 300 300 299 298 298 297 297 296 296 295 295 295 296 296 296 295 295 294 294 294 294 294 293 293 293 292 292
320 324 324 323 319 316 317 317 314 314 315 317 319 320 318 317 318 320 324 324 323 322 321 321 323 321 315 315 314 309 308 309 308 308 308 307 307 306 306 306 305 305 304 304 304 303 303 304 304 304 303 303 302 302 301 301 301 300 300 300 300 299 298 297 297 296 296 295 295 295 295 295 295 295 294 294 294 294 294 294 293 293 293 292 292 292
321 324 324 325 324 321 320 319 316 315 315 317 319 317 316 317 318 319 321 321 321 321 321 321 323 321 318 316 312 310 311 310 307 307 308 307 307 307 306 306 305 304 304 303 303 303 303 303 304 303 303 303 302 302 301 301 301 301 300 300 300 299 298 297 296 296 295 295 295 295 295 295 295 294 294 293 293 293 293 293 293 292 292 292 291 291
322 324 323 324 326 325 324 323 319 317 315 316 317 316 316 317 318 318 319 320 320 321 321 321 321 321 321 317 314 315 316 312 309 308 308 308 308 308 307 306 305 305 304 303 303 303 303 303 303 303 303 303 302 302 301 301 301 301 300 300 300 299 298 297 296 295 295 295 295 295 295 294 294 293 293 293 292 293 293 292 292 292 292 291 291 291
323 323 321 322 324 324 324 324 321 318 317 316 317 317 317 317 317 318 319 320 321 321 320 320 320 321 322 320 318 317 316 316 312 308 306 308 308 308 308 307 306 306 305 304 304 303 303 303 303 303 303 303 303 302 302 301 301 301 301 300 299 299 298 297 296 295 294 294 294 295 294 294 294 293 292 292 292 292 292 292 292 291 291 291 291 291
322 321 319 321 322 322 323 324 321 318 318 318 317 317 316 316 316 318 319 319 320 321 321 320 320 321 321 320 322 321 318 317 313 307 307 309 308 308 308 307 306 305 305 304 303 303 303 303 303 303 303 303 303 302 302 302 301 301 301 300 300 299 298 297 296 295 294 294 294 294 294 294 293 292 292 291 291 291 291 291 291 291 291 290 290 290
320 321 319 320 320 320 321 323 320 318 318 317 317 316 316 316 316 317 317 318 319 320 321 321 321 321 319 318 321 319 315 313 311 309 308 309 308 308 307 306 306 306 305 304 304 303 303 304 304 303 303 303 303 303 302 302 301 301 300 300 300 299 299 297 296 295 294 294 294 294 293 293 292 291 291 291 291 291 291 291 291 290 290 290 290 290
316 320 319 318 319 319 320 321 319 318 317 317 317 316 316 315 315 316 316 317 318 319 319 320 322 321 319 319 319 316 311 309 309 308 308 309 309 307 307 307 306 306 305 305 305 305 305 304 304 303 303 302 303 303 302 302 302 301 301 300 300 299 299 297 296 295 295 294 294 293 293 292 292 291 290 290 290 291 291 291 291 290 290 290 290 290
312 319 319 318 318 319 319 319 318 319 318 318 318 317 315 314 314 315 316 316 317 317 317 318 320 319 318 318 315 312 310 309 308 308 308 309 309 308 307 307 306 306 306 306 306 306 305 304 304 303 302 303 303 303 303 302 302 301 300 300 300 299 299 298 296 295 295 295 294 293 293 292 291 291 290 290 290 290 290 290 290 290 290 290 290 290
312 317 318 318 319 319 319 318 318 318 317 317 318 318 316 314 313 314 315 315 316 317 317 317 318 318 316 314 311 309 308 308 307 307 307 307 308 308 307 307 307 307 307 307 307 307 306 305 305 305 305 305 304 304 303 303 302 301 301 301 300 299 298 297 297 296 296 295 294 293 293 292 291 290 290 290 290 290 290 290 290 290 290 290 290 290
313 315 316 317 319 319 319 319 318 317 317 318 318 318 317 314 313 313 314 314 315 315 317 317 316 318 318 315 314 314 312 310 307 307 307 307 307 308 309 309 309 308 309 308 308 307 307 307 307 307 307 306 305 304 304 303 303 302 302 301 299 298 297 297 297 297 296 295 294 293 292 292 291 291 290 290 290 290 290 290 290 290 290 290 289 289
313 315 315 315 318 319 317 316 317 317 319 319 317 318 318 316 315 314 314 314 314 313 315 316 316 319 320 317 316 316 314 312 310 309 309 308 308 309 309 309 310 310 309 309 308 307 308 308 308 307 307 306 305 305 304 303 303 303 301 299 298 297 296 297 297 296 295 295 294 293 292 292 291 291 290 290 289 290 290 290 290 290 290 289 289 289
312 313 314 314 317 317 314 314 317 319 319 316 314 315 317 315 315 315 315 314 313 313 314 314 315 318 318 313 312 312 311 311 310 309 309 309 309 310 310 310 310 310 309 308 308 308 308 308 308 307 307 306 305 304 304 303 303 302 300 298 297 296 296 296 296 296 295 295 294 293 292 292 292 291 290 290 289 289 290 290 290 290 290 289 289 289
313 312 313 313 314 314 314 316 319 318 316 313 309 308 312 315 314 314 315 315 313 313 314 313 313 315 313 309 309 310 309 309 309 308 308 309 310 310 310 310 310 309 309 309 309 310 309 309 308 307 307 306 305 305 304 303 303 301 300 299 297 296 296 296 296 295 295 295 294 294 294 293 293 292 291 290 289 289 289 290 290 290 290 289 289 288
313 312 312 313 314 314 314 316 317 317 317 315 310 308 311 314 315 315 316 317 314 312 312 312 313 315 313 308 307 309 309 310 311 309 308 309 310 310 310 311 311 310 310 310 311 310 310 308 307 306 305 305 305 304 304 303 302 301 300 299 297 297 296 296 296 296 296 295 294 295 295 294 293 293 292 290 289 289 289 290 290 290 290 290 289 289
311 312 312 314 314 314 315 316 316 317 318 316 314 312 308 306 310 313 315 319 317 311 310 311 312 314 313 308 305 307 309 312 314 312 310 310 311 310 311 311 311 311 310 310 310 309 308 308 307 306 305 304 304 304 304 303 302 301 300 299 298 297 296 296 296 297 296 295 295 295 295 294 294 294 293 291 290 289 289 289 290 290 290 290 289 289
308 309 311 313 314 314 315 316 317 318 317 314 314 311 304 303 308 311 313 319 317 308 306 310 311 310 310 306 304 307 312 314 314 311 309 310 310 310 310 310 310 310 309 309 308 307 307 307 306 306 305 304 304 304 303 302 302 301 300 299 298 297 297 297 297 296 295 295 295 295 294 294 294 294 293 292 291 290 290 289 289 290 290 290 290 289
307 309 310 312 314 313 314 315 316 316 315 314 312 307 302 303 308 312 316 318 311 303 303 309 309 307 307 304 304 308 312 314 313 309 306 307 308 308 308 308 308 308 307 307 306 306 306 305 304 304 303 303 302 303 302 302 301 300 300 299 298 297 298 298 297 296 295 295 295 295 294 294 294 294 293 292 291 291 290 289 289 289 290 290 290 289
307 308 309 311 313 313 314 315 315 314 314 312 308 302 301 304 308 313 317 314 305 302 304 307 309 309 308 305 305 308 309 308 308 306 304 305 307 306 307 307 306 306 305 305 305 304 304 303 302 301 300 300 300 301 301 301 300 300 299 298 298 298 298 298 297 296 295 295 294 294 294 294 294 294 293 292 291 290 289 289 289 289 289 289 290 289
308 308 309 310 312 312 313 314 314 314 312 308 304 300 301 307 312 313 310 306 303 304 305 306 307 309 309 306 306 307 307 304 303 303 303 303 303 303 303 303 303 304 304 304 303 302 301 300 299 298 297 298 298 299 300 300 300 299 299 298 298 299 298 297 296 296 295 294 294 294 294 294 294 293 292 292 291 290 289 288 288 288 289 289 289 289
309 309 309 310 311 312 312 312 314 315 310 304 303 302 304 310 314 309 302 301 303 305 305 305 306 306 307 307 306 305 305 304 302 301 301 301 301 301 300 299 299 300 301 301 300 300 299 298 297 296 296 296 296 297 298 299 299 299 298 298 299 298 297 297 296 295 295 294 294 294 294 294 293 292 292 291 291 290 289 288 288 288 288 289 289 288
310 310 310 310 310 311 312 312 312 311 306 303 305 306 307 309 309 305 302 301 302 303 305 305 305 305 305 305 305 304 304 303 302 301 301 301 300 298 298 297 297 298 298 298 297 297 296 296 296 296 295 295 295 296 296 297 298 298 298 298 298 297 297 296 296 295 295 294 294 294 294 293 293 292 292 291 291 290 290 289 288 288 288 288 288 288
310 309 309 310 309 309 311 310 307 303 302 302 303 304 305 305 304 304 305 304 302 303 304 304 304 304 304 304 304 303 302 302 302 301 300 299 297 296 296 295 295 295 295 295 295 295 295 295 295 295 295 295 295 295 295 296 296 297 297 297 296 295 295 295 295 295 295 295 294 294 294 294 293 293 292 292 291 291 290 290 289 288 288 287 287 287
304 303 306 310 309 307 306 304 302 300 300 301 302 302 303 304 303 304 305 305 304 304 303 303 303 303 302 302 302 301 301 301 300 299 297 296 295 295 295 295 295 294 294 294 294 294 294 294 294 294 294 294 295 295 295 295 296 295 295 294 293 293 292 292 293 293 293 293 293 293 293 293 293 293 293 293 292 292 292 291 290 289 289 288 287 287
301 301 305 309 310 310 308 304 301 300 299 300 301 302 302 303 303 303 304 304 303 302 302 302 301 300 299 299 299 299 299 299 298 298 297 295 295 294 294 294 294 294 294 294 294 293 293 293 293 293 293 293 294 294 294 294 294 293 292 292 292 291 291 291 291 291 291 291 291 291 291 292 292 292 292 292 292 292 292 291 291 290 289 289 288 288
304 303 305 307 307 306 304 300 297 297 298 299 300 301 301 302 302 302 302 302 302 301 301 300 300 298 298 298 297 297 297 297 296 297 296 295 294 294 294 294 294 294 294 293 293 293 293 293 293 293 293 293 293 293 293 293 293 292 292 292 291 291 291 291 291 291 291 291 291 291 291 291 291 291 291 291 291 291 291 291 291 290 290 290 289 289
303 304 306 307 304 301 298 295 294 297 299 298 298 300 301 301 301 300 300 300 300 300 299 298 298 298 297 297 297 296 296 296 296 296 295 295 294 294 294 294 294 293 293 293 293 293 293 293 293 293 293 293 292 292 292 292 292 292 292 292 291 291 291 291 291 291 291 291 291 291 291 291 291 291 291 291 291 291 291 291 291 290 290 290 290 289
302 305 304 304 305 303 300 297 297 302 303 299 298 301 300 299 299 299 299 299 299 298 298 297 297 297 296 296 296 296 296 296 295 295 295 294 294 294 294 294 293 293 293 293 293 293 293 293 293 293 293 293 292 292 292 292 292 292 292 292 291 291 291 291 291 291 291 291 291 291 290 290 290 290 290 290 290 290 290 290 290 290 290 290 290 289
301 304 303 303 305 305 301 298 298 302 303 301 301 303 301 299 298 298 299 299 298 297 297 297 297 296 295 295 295 295 295 295 295 294 294 294 294 294 293 293 293 293 293 293 293 293 293 293 293 293 293 293 292 292 292 292 292 292 292 291 291 291 291 291 291 291 291 291 291 291 291 290 290 290 290 290 290 290 290 290 290 290 290 290 289 289
Wind_Speed
7 3 2 4 6 7 8 9 10 8 6 5 4 3 4 4 5 4 4 4 5 4 6 8 8 9 9 8 12 21 22 20 21 19 20 24 25 26 25 23 22 20 19 16 13 11 12 14 14 13 14 16 18 17 16 18 19 19 19 20 20 19 17 16 16 16 16 15 14 16 17 18 17 15 14 14 12 12 11 10 9 8 9 9 8 9
6 5 6 9 9 8 8 10 9 7 6 6 5 5 5 4 6 5 3 3 1 2 5 5 6 9 9 7 11 16 15 16 24 24 23 27 28 28 27 24 23 21 20 17 15 14 15 16 16 15 16 19 21 20 19 19 20 21 19 18 19 19 18 17 17 18 17 14 13 16 19 19 19 16 14 14 14 13 14 14 13 13 14 13 14 14
3 5 8 12 9 7 7 7 7 8 8 8 5 3 5 4 4 5 3 3 1 2 4 5 5 9 9 8 9 14 17 21 31 32 30 32 31 30 28 26 26 24 22 20 17 16 17 19 18 18 19 20 20 21 22 22 21 21 19 18 17 18 18 17 16 16 17 16 16 17 19 18 18 18 16 16 18 17 18 18 17 17 16 15 15 14
4 5 10 15 10 6 7 7 6 7 5 6 5 3 4 4 2 3 4 4 2 1 3 5 6 8 8 8 10 16 20 20 26 30 28 28 30 31 30 29 28 27 25 22 19 18 20 21 20 21 22 21 21 22 23 23 22 21 20 18 17 18 17 17 17 16 18 20 19 18 18 18 19 21 21 21 22 20 19 18 17 16 15 13 12 12
7 6 7 11 10 7 7 7 6 6 4 4 5 5 5 4 4 6 3 2 3 4 2 3 6 7 7 8 10 9 10 11 16 22 22 23 27 28 28 28 28 27 26 24 22 21 22 23 23 23 24 23 23 23 23 23 22 21 21 19 19 19 19 18 18 18 19 21 21 22 22 23 24 24 23 22 22 20 18 17 16 15 13 11 10 9
10 9 5 5 7 8 8 7 7 7 5 5 4 7 8 7 7 6 2 3 4 5 3 2 2 7 4 6 8 3 3 8 11 15 19 21 24 27 28 29 28 26 25 23 22 22 24 25 25 25 25 25 25 24 24 23 23 22 22 22 21 20 20 19 18 18 19 21 22 23 24 25 24 25 23 21 20 18 17 15 14 14 12 9 8 8
5 10 8 6 7 8 8 7 6 7 5 4 5 7 8 8 7 6 1 1 2 4 3 3 2 7 6 5 8 5 5 9 9 10 15 20 23 28 30 30 30 28 26 24 22 23 25 27 28 28 27 27 27 27 26 25 24 24 23 23 22 21 21 20 20 20 20 21 23 23 22 21 20 22 22 20 18 17 15 14 13 12 11 9 7 7
4 9 9 8 8 7 7 6 6 7 7 4 5 4 6 6 7 6 3 2 4 3 4 2 3 5 9 7 7 7 8 9 9 9 12 18 23 27 29 30 30 29 28 27 25 25 28 29 30 29 28 29 29 28 27 26 26 25 25 24 23 22 22 22 21 21 21 22 23 22 20 20 18 18 20 21 18 16 14 13 13 11 10 9 7 7
3 8 9 10 8 6 6 5 6 9 6 5 5 5 6 5 4 3 4 1 1 2 4 2 3 3 9 6 1 3 7 10 12 13 13 19 24 27 29 29 29 28 27 26 26 26 28 30 30 30 30 30 30 29 28 27 27 26 25 24 24 24 24 24 23 23 22 21 20 20 19 20 20 18 19 19 17 16 14 12 12 10 9 8 7 6
1 6 8 8 7 6 5 1 3 8 5 4 4 6 6 4 4 5 4 3 3 2 4 5 5 3 8 4 3 2 5 9 12 12 12 19 27 28 29 29 27 27 26 25 25 26 28 30 31 31 31 32 31 29 28 28 27 27 25 25 24 25 25 24 24 23 23 20 19 19 18 18 20 19 18 18 16 15 13 11 11 10 9 8 6 6
1 2 2 3 4 5 6 3 3 3 7 7 7 6 7 6 5 4 3 4 2 4 6 10 11 7 6 3 4 4 5 7 8 7 7 15 25 29 30 30 29 28 28 26 25 26 28 31 33 32 33 33 32 31 30 29 28 27 26 25 25 25 25 25 24 23 23 21 19 18 18 17 17 18 17 16 16 15 13 12 11 10 8 7 6 5
3 1 1 2 5 6 7 4 5 3 6 8 5 5 4 4 4 4 4 4 1 6 5 10 12 11 9 6 3 5 6 5 7 7 7 11 22 30 32 32 32 31 30 29 28 29 31 34 35 35 35 35 34 33 32 30 29 28 27 27 27 26 26 25 25 24 24 23 21 19 18 17 15 15 15 14 14 14 13 11 10 9 7 6 5 4
2 3 2 1 4 7 7 3 3 5 3 5 5 6 3 2 2 3 2 0 4 6 3 6 8 7 10 8 7 10 10 9 8 8 11 15 22 29 32 33 34 33 32 32 31 32 34 37 38 38 38 37 37 35 34 31 30 30 29 29 29 28 28 27 26 26 25 24 22 21 19 17 16 15 14 14 13 14 12 10 9 8 6 5 4 3
3 5 1 2 3 8 10 6 3 2 2 6 6 7 5 3 1 3 4 2 4 5 4 3 6 3 6 5 11 15 12 10 9 10 14 19 25 30 33 34 34 35 35 34 34 34 35 38 39 39 40 40 38 36 34 33 32 32 32 31 30 30 29 28 27 26 25 24 23 21 19 18 16 16 15 14 13 12 12 10 8 7 5 4 2 2
5 6 5 8 4 10 13 9 7 5 5 6 5 6 5 5 4 4 4 4 4 4 4 1 3 4 3 2 8 9 8 6 7 9 14 18 23 28 31 32 34 35 36 35 36 36 36 37 39 40 41 41 39 37 36 35 35 34 33 33 32 31 30 29 28 27 26 25 24 22 20 18 17 16 16 14 12 11 11 10 8 6 5 4 2 2
7 7 7 7 5 13 14 8 8 8 3 3 3 4 3 6 5 3 3 4 3 2 3 2 4 5 4 5 5 3 5 4 2 7 13 16 20 26 29 32 34 36 37 37 37 37 36 37 40 41 42 41 39 38 38 38 37 36 35 34 32 31 30 30 28 27 26 25 24 23 21 20 18 17 16 15 13 12 11 9 8 7 5 4 3 3
5 5 4 1 3 7 10 6 8 7 5 2 3 4 4 4 5 2 3 1 2 3 4 4 5 4 3 7 5 1 3 3 0 6 12 16 21 27 30 34 36 37 38 38 38 38 38 38 41 42 43 42 41 40 40 39 38 36 35 34 33 32 31 30 28 27 26 26 25 24 23 21 19 18 16 14 14 13 12 10 9 7 6 6 5 4
5 3 3 2 2 4 3 3 3 3 6 5 4 6 2 2 1 2 1 3 2 4 5 4 7 5 2 6 3 2 3 6 5 6 9 14 21 26 29 34 36 38 38 38 38 38 38 40 42 44 43 43 42 42 41 39 38 36 35 34 34 33 31 30 29 28 27 27 26 25 24 22 20 18 16 14 14 13 12 11 10 8 7 6 5 4
4 3 3 1 2 2 2 3 1 2 3 5 4 5 4 1 1 3 2 2 2 4 5 3 5 6 6 6 2 4 9 10 8 7 7 12 20 25 28 32 35 36 37 38 39 40 41 43 44 45 45 44 43 42 41 40 38 37 35 34 33 32 31 30 29 28 28 28 27 25 24 23 21 19 17 16 15 14 13 11 10 9 8 7 6 4
3 3 3 1 1 1 1 2 4 2 0 3 2 2 2 2 3 4 3 3 3 3 4 3 3 5 7 7 8 10 13 13 11 9 9 14 23 28 30 33 35 38 39 41 41 42 43 44 46 46 46 45 44 43 41 40 39 38 36 35 33 32 31 30 30 30 30 29 28 26 25 24 22 20 19 18 16 15 14 12 11 10 9 7 6 5
2 2 3 1 2 1 2 4 7 10 7 3 3 5 3 1 2 1 2 2 4 2 3 3 6 7 4 5 10 14 14 13 14 13 12 17 26 30 32 36 38 40 41 42 43 44 45 46 46 46 46 45 44 43 42 41 40 38 37 36 34 33 33 32 31 31 31 30 29 27 26 25 23 22 21 19 18 16 15 14 13 11 10 8 6 5
3 3 3 2 1 3 5 5 5 8 7 6 6 7 7 5 4 1 4 3 4 3 4 3 8 10 4 4 7 11 10 10 15 16 14 19 28 32 33 37 39 40 41 43 44 45 46 47 48 47 47 45 45 44 43 42 41 40 38 37 35 34 34 33 33 32 31 30 30 29 28 26 25 24 23 21 20 18 17 16 14 12 10 9 7 6
4 3 3 3 4 5 5 4 1 2 3 3 3 4 5 6 7 6 6 4 3 4 3 3 5 9 2 1 3 5 6 9 16 19 17 21 30 32 34 36 37 39 40 41 43 45 47 49 49 49 48 47 46 45 45 43 42 41 39 38 37 36 35 34 33 33 32 31 31 30 29 27 26 26 24 23 21 20 19 17 15 13 12 10 9 8
4 3 3 1 1 2 4 4 4 4 3 2 3 5 7 8 8 6 5 4 3 5 4 2 6 7 3 2 3 3 5 6 14 21 21 21 25 29 31 34 36 38 37 39 42 44 46 48 49 50 49 49 48 47 46 45 43 42 40 40 39 37 36 35 35 34 33 33 32 31 31 29 28 27 26 24 23 22 20 18 16 14 13 12 11 9
7 4 4 2 1 2 3 2 3 2 2 4 5 6 8 8 7 3 1 2 4 8 8 5 10 8 3 4 4 5 5 3 6 17 20 19 22 27 31 33 35 36 36 38 41 43 46 49 51 52 52 51 50 50 48 46 45 43 42 42 40 39 38 37 36 36 35 34 34 33 32 31 30 29 27 26 25 23 21 19 17 15 14 13 12 11
10 4 6 7 7 8 8 5 4 4 4 3 3 7 10 12 13 9 3 4 9 7 9 9 12 6 3 5 5 5 4 4 3 10 17 20 23 27 30 32 34 36 37 39 42 45 48 50 52 53 53 53 52 51 50 48 46 45 44 43 42 40 39 38 38 37 36 36 35 34 34 33 32 31 29 27 26 24 22 19 17 16 15 14 13 12
4 2 10 14 13 14 13 6 5 8 7 7 9 12 14 15 16 11 5 9 9 2 6 13 12 8 7 4 5 6 4 4 4 7 14 20 23 26 30 32 35 37 39 40 42 45 48 50 53 54 54 54 54 53 51 50 48 47 46 45 43 42 40 40 39 38 38 37 36 36 35 35 33 32 30 28 27 24 22 20 19 18 17 16 14 12
3 3 12 15 16 18 14 6 8 12 12 14 14 15 16 15 15 14 14 15 8 4 11 11 8 12 14 7 8 9 6 5 6 10 17 21 24 27 29 31 33 35 37 38 41 44 47 50 52 54 55 55 55 54 52 51 50 49 48 47 45 43 42 41 40 40 39 39 38 37 36 35 34 32 31 29 27 25 23 21 20 19 18 17 15 13
3 6 9 11 14 18 14 6 8 11 11 11 15 17 17 17 18 19 21 19 11 10 17 8 11 18 16 8 10 10 10 12 15 18 21 20 22 25 26 29 32 34 36 38 40 43 46 48 51 53 55 55 55 55 54 53 52 50 50 48 46 45 44 43 42 41 41 40 40 38 36 35 35 33 32 31 29 27 25 23 22 20 19 17 16 14
2 4 4 8 12 17 15 8 7 10 8 8 12 16 17 20 23 22 23 21 17 18 20 9 8 17 12 8 11 13 17 20 16 16 17 16 20 23 26 29 31 33 36 38 40 42 44 46 48 49 52 53 55 56 55 55 54 53 52 50 48 47 46 45 44 43 42 42 40 38 37 37 36 35 34 32 30 28 26 24 23 21 20 18 16 15
3 2 2 6 7 14 14 8 6 8 8 8 9 11 15 18 19 19 20 18 15 19 21 11 9 15 7 6 7 9 13 12 10 13 18 18 21 24 27 29 30 31 34 36 38 40 41 43 44 46 48 50 52 54 55 56 55 54 53 52 51 50 48 47 46 44 44 42 40 39 38 38 38 36 35 34 31 29 27 26 24 23 21 19 18 17
5 3 2 5 5 11 11 10 9 8 6 7 12 17 18 14 11 15 16 14 15 19 18 12 13 14 5 5 2 4 8 10 10 15 18 19 21 24 26 27 28 30 32 33 36 37 38 40 40 41 44 45 47 49 52 55 56 55 55 54 53 52 50 49 47 45 44 42 41 41 40 40 39 38 37 35 33 31 29 27 26 24 23 22 20 19
5 4 2 5 7 11 7 8 10 7 5 8 15 19 18 12 11 13 14 15 18 17 14 12 14 11 4 5 4 4 6 8 11 16 18 18 20 23 23 23 23 26 27 28 32 33 33 33 32 34 37 39 41 43 46 50 52 54 55 55 54 53 51 50 47 46 45 44 43 43 42 41 40 39 38 36 34 32 30 29 27 26 25 23 21 20
5 6 5 4 5 7 4 7 6 5 9 9 6 7 12 16 18 17 16 18 18 14 12 12 10 4 6 8 8 8 10 12 17 22 20 18 20 22 21 19 18 20 22 25 28 27 25 24 24 28 31 34 36 38 40 44 47 50 53 53 53 53 52 50 48 47 47 46 44 44 43 42 41 40 39 38 36 34 32 30 29 27 26 24 23 22
8 8 5 3 3 3 3 6 4 7 10 5 3 1 6 14 19 20 20 20 17 14 15 16 12 6 7 10 11 13 18 18 17 19 18 15 15 16 16 17 17 18 20 20 19 17 17 19 21 25 28 30 33 35 38 41 43 47 50 51 52 52 51 49 49 49 49 47 46 45 44 42 42 41 40 39 37 36 34 32 31 29 28 27 25 23
10 8 4 3 3 1 3 6 7 5 3 2 3 2 1 4 9 13 15 17 16 15 16 18 17 9 6 9 10 11 15 14 11 12 14 11 10 11 13 14 13 12 11 9 9 11 14 16 18 20 23 26 29 33 35 37 40 43 46 47 49 49 48 49 50 50 50 49 48 46 44 43 43 41 41 41 39 38 36 35 33 31 30 28 27 25
9 8 4 4 4 3 4 6 3 5 6 2 1 3 4 5 8 10 9 10 11 14 15 15 13 8 7 10 9 8 7 5 4 7 9 7 8 11 12 11 9 9 10 11 13 15 16 16 16 15 18 21 24 27 29 31 35 39 41 43 45 45 46 49 51 51 51 50 49 46 45 45 43 41 42 42 41 40 38 36 35 33 32 30 29 27
6 7 7 7 5 4 5 5 2 4 8 5 4 6 4 3 6 9 6 5 6 9 15 15 10 9 9 7 7 7 4 1 4 8 10 11 12 12 12 12 12 14 14 15 16 17 17 16 14 13 14 16 18 20 22 25 30 33 36 39 41 43 45 47 50 51 52 50 48 46 46 45 42 41 42 43 41 40 39 38 37 35 33 32 30 28
1 2 5 6 4 4 6 6 5 6 6 4 5 7 4 4 7 8 3 5 5 4 11 12 8 9 10 10 12 10 5 3 6 7 9 11 13 13 14 15 15 15 15 15 15 14 13 12 12 11 12 13 14 15 17 21 25 29 33 35 38 40 43 45 47 49 49 47 46 46 46 43 41 42 43 42 40 39 39 39 38 36 34 32 31 30
3 2 4 6 6 6 7 6 4 3 4 4 6 6 3 5 10 9 2 6 3 2 4 7 8 10 14 17 16 10 6 7 6 4 6 8 10 12 13 13 13 13 13 12 12 12 11 10 10 10 10 10 11 12 15 19 22 26 30 32 35 38 39 40 42 43 43 42 43 44 43 42 42 43 42 40 38 38 39 39 38 37 35 33 32 31
3 2 3 7 8 8 9 7 2 2 4 5 6 6 4 5 6 5 4 6 5 5 6 9 12 15 18 21 17 10 8 9 5 4 8 9 9 10 10 10 11 10 10 10 10 9 9 9 8 8 8 8 9 11 14 17 20 23 26 29 32 33 33 34 35 36 37 38 39 40 40 40 41 41 39 37 37 37 38 39 39 38 37 35 34 33
3 2 2 6 7 5 6 5 2 2 5 5 5 5 5 4 3 5 4 5 8 7 6 7 12 14 17 21 19 13 11 9 7 6 9 9 8 8 7 7 8 8 9 9 9 8 8 7 7 7 6 6 8 9 11 14 17 20 23 26 26 24 24 26 28 29 32 34 36 37 37 38 39 38 37 36 36 36 37 38 39 40 39 37 36 35
6 5 4 5 5 3 2 4 3 3 5 13 12 4 2 3 4 9 11 7 7 8 6 6 8 10 13 16 17 14 11 11 10 9 9 8 7 6 6 6 6 6 7 7 6 6 6 5 5 5 4 5 6 7 8 11 13 15 18 19 16 15 17 21 22 25 28 30 32 33 34 35 35 35 35 34 34 35 35 36 39 40 41 40 39 38
4 5 4 4 4 4 3 6 4 2 8 21 15 4 7 8 9 16 16 8 8 11 10 9 8 8 10 12 15 15 12 11 11 9 8 7 6 6 6 7 7 7 6 5 5 4 3 3 3 3 3 4 5 6 7 8 9 11 13 11 9 11 15 17 19 22 25 26 27 29 30 30 31 31 32 32 33 34 35 36 38 40 41 42 41 41
3 4 4 3 3 4 2 4 1 2 12 23 10 2 11 15 12 15 13 8 10 13 12 11 11 11 11 11 14 15 12 10 11 9 7 7 7 8 9 10 10 9 7 6 4 3 2 2 2 2 4 4 5 6 7 7 8 9 8 6 7 9 11 12 15 18 19 21 22 24 24 25 27 28 29 30 31 33 34 35 36 38 40 42 43 43
1 2 3 2 2 2 2 2 2 2 12 19 9 4 14 16 14 14 12 9 12 14 13 13 12 12 13 12 12 12 11 11 11 9 8 9 10 11 11 11 10 9 7 6 4 3 2 2 3 4 5 5 6 7 7 7 8 8 6 6 7 7 8 9 11 12 14 16 17 19 20 22 23 25 26 28 29 31 32 33 34 36 37 39 41 42
2 3 3 2 3 4 2 3 3 3 12 16 10 9 15 16 15 15 13 12 15 15 14 13 12 11 12 11 9 9 9 10 10 9 9 11 11 12 11 9 8 8 6 5 4 3 3 3 3 4 5 6 6 7 7 8 8 7 7 8 8 7 8 9 10 11 13 15 16 17 19 20 21 23 24 26 28 29 31 32 33 34 36 37 39 40
3 6 5 2 3 3 1 2 1 2 10 14 11 12 17 18 18 17 16 16 17 15 14 14 13 12 11 9 8 8 8 8 8 8 10 12 13 11 9 8 7 7 6 5 4 3 3 3 3 4 5 6 7 8 9 9 8 9 9 9 9 9 10 11 12 13 15 16 17 19 19 20 22 23 24 25 27 28 30 31 32 34 35 35 36 37
8 8 5 2 3 2 2 2 2 3 3 9 12 15 20 21 20 20 18 17 17 16 16 16 13 11 10 10 11 11 10 9 9 9 11 14 12 10 8 7 6 6 5 4 3 3 3 3 3 4 5 6 8 10 11 11 11 12 13 12 12 13 13 14 15 16 18 19 20 21 22 23 24 25 26 27 28 29 31 32 33 34 35 36 37 39
8 6 3 3 5 3 2 7 10 5 2 11 18 21 23 22 21 21 19 18 17 17 18 17 14 12 12 12 12 12 11 11 11 12 14 13 11 9 8 7 7 6 5 4 4 4 4 5 6 7 8 9 11 13 13 13 14 15 15 16 16 16 16 17 17 18 19 19 20 21 22 24 25 26 28 29 31 32 33 35 36 37 38 39 40 40
7 7 6 6 5 4 7 18 21 10 5 16 26 26 25 25 24 22 21 20 19 18 16 14 13 13 13 13 12 11 11 11 12 14 14 12 11 10 9 8 8 7 6 6 7 7 8 8 9 10 11 12 14 15 16 16 17 17 18 19 19 20 20 20 19 19 20 20 22 23 23 25 26 27 28 30 31 33 35 36 37 38 39 40 41 41
Wind_Direction
162 147 163 198 212 203 202 202 209 212 198 214 231 230 211 215 268 266 257 249 166 166 243 226 232 249 245 244 232 218 209 210 217 219 211 204 203 205 204 204 207 211 215 217 213 206 202 200 199 200 188 171 168 167 164 167 166 165 165 166 165 164 168 174 174 170 173 180 177 167 162 155 149 148 149 144 140 140 138 133 132 130 119 114 110 104
162 190 219 218 215 199 201 211 217 225 229 244 249 256 258 234 256 266 264 276 148 180 263 266 264 266 255 250 241 216 200 210 214 214 214 208 205 207 204 201 202 206 210 211 211 204 198 196 193 193 183 175 178 175 169 168 167 168 169 167 166 165 167 171 171 171 174 177 170 162 158 153 149 148 148 140 135 133 127 122 118 113 108 106 103 99
201 231 231 225 219 202 219 226 216 221 227 236 235 235 257 254 266 296 323 324 34 178 262 308 297 272 263 257 245 216 204 215 216 215 215 210 205 203 201 200 200 202 206 209 211 203 194 193 190 186 182 183 186 178 174 174 173 174 173 172 172 170 171 173 173 175 171 163 159 157 153 152 148 143 142 134 126 124 120 116 112 108 106 105 102 99
215 243 234 223 213 200 234 250 225 220 225 222 209 191 238 255 257 280 303 300 308 218 258 316 305 276 270 263 253 232 219 220 221 220 221 216 209 206 203 205 205 205 207 207 208 200 192 191 189 186 184 185 185 178 178 180 179 179 174 172 173 169 167 164 164 167 164 159 159 159 153 150 143 136 134 128 123 123 120 116 113 111 110 108 105 102
215 231 223 203 201 201 219 242 223 212 242 239 201 190 218 238 218 230 275 316 337 338 323 342 314 283 262 253 261 250 223 221 221 218 220 220 215 210 207 208 211 213 214 213 208 199 193 191 189 187 186 186 184 181 181 179 178 177 172 171 170 165 163 164 166 169 167 162 161 158 150 145 139 132 131 129 126 127 124 121 120 117 114 113 110 106
231 232 217 165 193 209 207 226 213 191 223 268 230 204 210 218 223 235 290 25 2 324 300 73 311 282 276 255 264 283 193 219 217 209 211 211 208 207 205 205 209 214 218 221 216 204 196 192 190 188 186 187 186 183 182 178 177 176 173 170 167 166 167 168 169 168 166 162 157 152 147 144 139 133 133 134 132 132 131 130 127 123 120 116 110 103
217 209 209 179 187 205 208 227 220 180 177 251 247 206 206 216 227 236 238 59 265 268 279 99 148 274 289 263 249 231 210 225 221 213 210 201 198 201 203 204 206 208 212 216 215 205 197 193 191 188 186 187 186 184 183 180 177 176 174 170 168 169 169 168 165 162 161 158 153 149 146 144 143 141 140 139 138 139 138 133 129 127 122 114 105 96
159 179 198 195 189 195 199 221 221 168 152 231 246 173 175 203 217 215 168 171 226 258 321 36 125 277 281 261 238 205 211 240 236 229 220 204 197 198 200 203 206 209 211 211 208 202 197 194 192 188 185 185 185 183 183 181 178 177 176 173 173 172 167 163 159 156 156 154 151 150 148 146 149 151 146 143 144 141 138 135 130 127 122 113 104 92
147 171 185 183 186 198 198 217 196 157 154 240 225 128 130 159 165 137 117 151 302 355 311 282 131 270 272 263 285 172 212 248 243 231 223 210 203 199 198 202 206 209 213 213 209 201 196 193 190 187 184 182 183 183 183 181 178 178 178 175 173 169 163 158 154 151 153 155 154 156 157 155 155 156 149 147 147 141 140 141 133 128 123 114 104 89
173 187 185 169 180 203 196 211 166 164 186 206 144 85 69 69 72 73 92 97 21 327 236 211 171 236 269 237 120 120 227 242 244 236 222 210 208 203 199 200 203 205 208 210 209 202 195 192 189 186 184 182 183 184 183 182 179 179 178 175 172 168 162 156 152 152 156 160 163 165 169 166 161 159 153 150 149 145 147 147 138 133 126 116 105 87
5 170 193 167 174 173 145 82 42 162 168 132 94 60 45 24 32 41 54 84 32 273 216 197 189 197 267 268 168 194 223 222 234 243 220 203 205 206 203 201 201 202 203 204 206 201 194 191 188 186 185 183 183 185 184 182 181 180 179 175 171 167 161 156 155 158 162 166 171 173 175 175 168 163 159 157 155 152 153 152 143 137 130 119 104 81
353 107 243 171 154 126 105 75 24 43 126 114 88 83 68 349 13 19 3 58 234 253 210 198 192 189 231 263 223 228 247 230 219 223 210 193 198 203 203 203 202 201 202 202 202 199 193 190 188 186 186 185 185 185 185 183 182 181 179 175 171 166 163 162 162 166 169 170 174 177 177 177 171 165 163 163 161 157 156 155 146 141 136 125 105 78
300 238 227 136 172 158 124 89 20 6 50 99 106 113 120 283 8 357 306 122 231 256 251 198 182 199 235 254 256 254 258 250 237 230 215 197 194 198 199 200 201 201 202 201 201 199 194 191 188 187 187 187 186 186 185 184 183 180 178 175 171 168 168 169 170 173 175 175 177 178 177 176 172 167 167 167 164 158 157 156 151 148 142 130 112 79
268 296 236 141 249 193 167 158 181 243 175 150 141 143 158 171 169 257 244 254 256 266 286 194 164 226 269 266 248 250 258 256 260 255 228 209 201 200 198 197 198 199 201 202 201 200 197 192 190 189 188 187 187 186 185 184 181 180 178 176 174 174 174 175 176 177 178 178 178 179 179 179 177 173 170 169 166 161 160 161 159 154 147 138 126 104
214 286 203 182 203 184 186 193 172 139 158 180 153 140 159 160 177 217 207 223 254 275 290 243 164 198 212 247 240 249 278 277 268 251 222 212 206 197 192 191 193 197 199 201 202 202 199 194 191 190 188 188 188 186 185 183 182 181 180 178 179 180 179 179 180 181 180 180 180 181 182 183 182 178 173 169 168 167 168 168 165 161 157 157 161 155
200 260 223 193 165 168 188 192 135 113 149 220 118 117 184 182 182 227 205 184 189 289 282 220 221 216 209 262 260 263 299 303 260 209 190 189 189 183 182 187 191 195 197 200 201 201 200 195 192 191 189 189 188 187 185 183 183 183 182 181 183 185 184 183 184 184 183 183 183 184 186 186 184 181 178 175 173 173 173 172 171 172 170 175 182 171
186 272 270 152 119 177 194 180 149 157 178 176 144 175 199 169 165 221 275 32 85 272 262 196 244 291 303 272 260 119 288 290 225 179 175 174 174 176 182 186 191 194 197 200 202 202 200 195 193 192 191 189 188 187 185 185 186 186 186 186 186 188 188 187 187 187 186 187 188 188 188 188 186 183 184 184 183 181 178 178 179 182 184 187 189 170
171 251 283 136 175 243 219 148 148 160 140 132 185 197 140 63 93 143 261 342 43 262 266 202 231 256 239 259 282 85 240 254 242 198 174 171 174 179 186 189 193 196 198 201 202 202 200 196 194 193 191 190 188 187 187 187 188 188 190 191 190 191 192 191 190 190 190 191 192 192 190 188 187 186 188 190 191 188 185 185 185 187 194 193 185 163
170 215 280 111 182 270 31 127 131 8 111 133 187 186 130 122 208 138 177 233 199 253 279 256 239 228 205 218 215 192 219 228 226 203 185 185 185 188 190 191 194 196 197 200 202 202 200 197 195 193 191 190 189 189 189 189 191 191 192 194 194 194 195 195 194 192 193 195 196 195 192 190 189 189 193 196 195 193 190 191 191 194 199 195 180 162
172 205 264 338 225 247 47 151 175 203 215 51 69 168 138 136 173 170 177 177 171 235 277 302 286 239 216 201 182 197 214 212 203 197 200 199 193 192 192 191 193 196 198 201 202 202 200 197 196 193 192 191 190 191 191 192 193 193 194 196 196 196 197 197 197 196 196 197 197 197 193 192 193 195 199 200 198 196 194 194 198 200 200 193 181 170
157 220 234 295 327 186 184 202 187 184 183 151 152 181 189 130 112 181 216 152 142 188 237 269 277 263 233 192 188 200 210 205 195 196 204 204 198 196 196 195 195 198 201 203 203 202 200 198 196 194 193 192 192 193 194 195 195 195 196 197 198 199 199 200 200 199 199 198 199 199 197 196 198 200 203 202 200 199 198 200 203 203 200 193 189 187
189 204 175 172 234 206 222 244 213 190 183 176 184 190 187 172 138 188 249 207 154 197 197 199 268 267 234 183 205 208 210 205 197 197 201 201 199 199 200 200 200 201 203 204 203 202 200 198 197 195 195 194 194 195 196 197 197 198 199 199 200 202 202 203 202 201 201 201 200 200 201 202 203 205 206 204 202 201 203 205 206 205 202 199 201 202
156 130 154 186 206 208 244 277 274 164 148 136 180 190 184 188 175 186 228 216 174 231 212 140 272 276 259 163 244 237 235 223 206 200 201 203 202 201 202 202 203 205 206 205 203 202 201 199 198 197 196 196 197 198 199 199 200 200 201 202 203 204 204 205 205 204 203 203 203 202 204 207 208 209 208 207 205 205 207 209 208 206 205 206 209 210
123 135 181 217 323 344 320 331 13 38 78 130 218 188 183 208 202 192 212 184 177 226 199 165 257 268 316 330 311 311 287 248 212 204 203 203 202 202 203 204 203 204 205 204 204 203 202 200 200 199 198 198 199 201 202 202 202 203 204 205 206 206 206 206 207 206 205 205 205 206 208 210 211 212 211 209 208 209 210 211 210 208 208 210 213 215
172 178 156 161 278 321 333 330 340 348 173 205 228 192 191 208 204 218 256 144 237 224 176 191 245 246 293 319 338 353 340 323 221 210 207 202 200 202 204 205 204 203 203 204 203 203 203 202 202 202 201 201 202 203 205 205 204 205 207 208 208 207 207 207 208 208 207 207 208 209 211 212 214 214 212 211 211 212 213 213 212 211 211 213 217 220
175 175 159 179 218 230 230 222 203 188 182 208 208 182 196 201 196 208 216 208 239 221 169 208 242 249 326 324 322 334 335 334 260 209 206 207 206 205 204 203 203 203 204 205 204 205 205 205 205 205 204 204 205 206 207 207 207 208 209 210 210 210 209 209 209 209 209 209 211 212 213 214 215 215 214 213 214 214 215 214 214 214 214 216 219 223
154 191 190 195 207 220 231 230 155 139 155 202 203 191 200 204 198 198 209 221 224 183 203 226 235 255 275 276 272 267 240 247 250 205 203 208 208 206 205 205 205 205 206 207 206 207 207 207 207 207 207 208 208 209 210 210 211 211 212 212 211 211 211 211 211 210 211 212 213 214 216 216 217 216 216 216 216 216 216 215 215 215 215 217 220 225
96 204 206 208 216 227 234 216 153 157 178 198 200 198 203 204 197 196 214 222 188 162 242 227 192 240 248 214 224 239 218 227 237 214 210 209 206 204 203 204 204 205 206 207 208 209 209 210 210 210 210 211 211 212 212 213 214 215 215 215 214 213 213 214 213 212 212 214 215 216 217 218 219 218 218 217 217 217 216 216 216 215 216 219 223 228
120 206 214 213 226 239 240 206 167 181 194 196 197 202 201 198 199 202 216 221 188 203 242 208 168 229 239 205 214 219 200 211 217 213 211 207 204 201 198 200 202 202 204 207 210 213 213 214 213 212 213 213 213 214 214 214 215 216 217 217 216 216 215 215 214 213 214 215 216 217 218 219 220 219 219 219 218 217 218 218 217 216 218 221 224 229
162 208 204 193 222 244 242 219 182 187 201 209 207 209 204 201 203 204 215 220 207 222 239 213 202 242 238 200 219 217 209 212 210 209 208 200 198 196 195 200 201 202 206 209 213 217 219 219 218 216 216 216 216 216 216 217 218 218 219 219 219 218 217 216 216 215 216 217 218 218 219 220 221 220 220 220 219 219 219 219 218 218 220 222 225 232
184 195 105 145 213 250 241 222 197 192 203 220 222 222 216 211 207 208 218 220 212 232 241 230 251 260 225 171 214 216 204 197 184 196 202 200 199 194 195 201 202 204 210 213 218 220 221 221 220 220 220 221 221 220 220 221 221 220 221 221 221 220 219 218 218 217 218 219 219 219 220 222 222 222 222 221 220 220 220 220 219 219 221 224 229 235
182 199 72 124 205 248 235 207 208 212 215 235 244 236 223 209 202 210 220 214 206 226 236 231 247 253 207 126 120 150 170 177 183 195 196 196 196 193 195 201 204 210 215 218 221 221 221 222 223 226 228 228 228 226 225 225 223 222 223 224 224 223 221 220 219 219 220 221 221 221 221 222 223 223 223 223 222 222 222 221 220 221 224 227 231 236
165 175 169 157 213 252 235 183 192 209 219 240 247 238 220 199 200 214 224 220 212 216 221 222 234 237 180 148 169 166 175 187 196 199 195 190 190 193 199 203 209 216 220 222 224 222 223 228 232 236 237 236 235 233 231 230 229 229 229 227 225 223 222 221 221 222 223 222 222 223 223 223 224 225 226 225 225 224 223 222 223 225 228 229 231 235
166 185 202 176 211 250 215 135 140 196 217 230 250 232 202 195 201 212 222 223 217 214 223 236 240 204 157 178 187 185 193 201 207 208 201 189 184 190 201 206 213 224 227 226 226 226 232 239 243 245 244 243 242 240 237 235 235 235 232 228 225 224 223 223 223 224 224 223 224 225 224 225 226 228 228 227 226 225 224 225 227 228 229 229 232 235
178 193 202 175 202 241 139 126 159 213 223 245 338 310 199 196 199 211 226 229 220 217 230 244 245 209 180 196 197 195 198 200 203 201 192 185 186 192 205 214 221 228 228 226 228 236 245 247 248 249 247 246 245 242 240 238 238 236 233 230 229 227 225 225 225 226 226 225 226 226 226 227 229 229 230 228 227 227 226 227 230 230 230 230 233 236
179 192 189 172 190 152 138 181 207 238 266 342 1 299 206 165 179 205 233 240 225 214 223 234 235 221 190 196 196 195 196 193 193 192 186 189 201 208 219 225 227 230 233 242 258 265 266 263 261 259 255 251 247 244 243 243 241 239 237 235 233 231 229 228 228 228 229 228 227 228 228 230 230 231 231 230 229 228 228 230 231 231 231 231 232 234
176 181 181 201 198 172 194 212 233 313 300 273 197 206 179 155 168 184 217 245 231 214 216 228 230 205 182 190 181 172 185 197 226 220 206 206 217 224 235 245 251 254 255 261 265 265 266 265 260 254 251 249 247 246 247 246 244 242 240 238 236 234 232 231 231 233 232 230 230 230 232 232 232 233 234 232 230 230 231 233 233 232 232 232 232 234
187 187 185 201 206 182 205 226 236 275 263 232 209 226 220 194 180 171 187 257 260 219 211 215 210 186 181 183 161 150 156 247 270 252 248 251 247 245 248 248 246 246 246 251 257 257 255 250 241 235 235 238 242 245 246 247 245 243 241 239 238 236 234 234 236 236 235 233 233 234 234 234 235 237 238 235 233 233 235 235 235 234 234 234 235 237
168 192 183 195 204 183 198 220 216 227 239 217 220 249 257 187 153 124 129 266 278 228 208 206 192 178 178 171 157 147 144 204 241 249 250 249 244 240 240 238 238 242 246 249 249 243 236 233 229 229 232 235 240 241 240 242 243 242 241 240 239 237 237 239 241 240 238 238 238 238 237 237 239 242 242 240 238 237 238 238 237 236 236 236 237 238
147 158 186 203 212 198 202 221 227 228 242 226 218 232 229 168 144 115 115 254 252 104 169 174 163 172 178 173 164 156 173 207 223 221 209 211 213 217 226 232 236 242 243 238 230 221 220 227 231 236 240 243 244 239 236 239 240 241 242 241 240 240 243 246 246 244 243 243 242 241 241 241 243 245 246 246 244 242 240 240 238 238 237 238 238 239
179 186 192 207 216 211 208 221 249 258 241 226 204 197 170 133 142 156 199 224 198 158 149 153 164 179 182 174 171 179 200 202 188 157 167 172 178 191 203 212 219 224 223 219 219 219 222 228 229 231 235 235 231 229 231 235 237 240 242 242 242 245 249 251 251 249 248 247 246 245 244 244 246 249 251 251 249 245 242 240 240 240 240 240 241 241
173 160 191 209 214 210 210 217 236 258 228 178 157 178 163 134 186 207 188 173 170 158 138 148 164 175 181 181 183 190 191 185 176 159 156 158 164 174 185 198 209 214 213 214 218 219 221 224 225 226 225 218 217 220 223 228 232 236 238 240 243 249 253 253 252 251 250 248 247 246 246 247 250 252 252 252 250 247 245 242 241 241 241 242 243 243
166 159 185 202 189 165 186 193 194 255 196 153 136 128 191 194 186 163 149 151 165 156 158 178 171 165 175 183 186 186 179 174 174 169 164 167 170 170 178 190 199 204 205 204 208 213 216 218 218 218 216 215 218 220 221 225 229 231 235 241 248 253 251 250 250 249 248 248 248 249 250 251 253 254 253 253 251 250 249 246 244 243 242 243 244 245
180 174 187 204 181 163 183 196 203 292 175 163 154 155 196 189 163 152 150 157 176 175 183 194 184 167 171 178 178 177 177 178 180 182 183 183 181 177 179 179 175 174 174 173 179 187 187 192 206 217 227 230 231 231 232 232 233 234 240 249 252 246 243 245 246 247 248 249 250 251 252 253 253 254 253 253 253 252 251 249 247 246 245 246 247 248
201 175 167 176 169 153 167 200 239 19 168 173 171 169 180 177 166 161 165 173 183 186 189 188 182 171 165 170 173 174 177 185 187 188 185 178 171 164 158 154 151 147 144 144 148 151 162 186 231 251 253 253 249 246 242 236 233 237 241 238 225 223 229 236 241 245 247 249 251 252 254 254 254 254 254 253 254 253 253 252 251 250 249 249 249 250
232 158 131 102 147 139 67 144 129 99 167 178 186 168 172 177 175 173 178 186 184 180 174 174 181 178 168 167 169 172 182 190 187 180 175 171 168 162 154 150 148 144 142 145 148 159 188 212 243 255 262 265 257 251 245 234 231 232 223 206 203 209 218 228 238 245 249 251 253 254 254 254 254 254 254 254 254 255 255 255 255 254 253 253 253 253
270 175 119 85 172 178 146 155 175 180 178 181 185 177 175 179 180 178 183 187 180 174 173 180 189 185 174 168 168 175 186 190 186 183 180 177 174 168 160 154 152 150 151 156 162 178 200 216 238 250 262 267 260 257 252 241 235 227 215 208 210 217 227 235 244 252 255 257 259 259 259 259 258 257 256 255 255 255 255 255 255 255 254 255 255 256
190 160 152 163 173 165 191 218 211 183 185 186 187 182 180 180 180 180 182 184 182 182 188 192 191 183 177 176 182 189 192 194 200 204 192 182 177 172 168 164 160 159 164 173 181 194 207 222 238 248 261 267 266 266 262 255 250 242 236 235 235 236 242 249 254 258 259 261 263 263 264 265 264 263 263 262 261 260 259 258 258 257 258 258 259 259
130 146 170 158 123 102 302 246 119 85 189 215 210 193 186 185 185 184 185 189 193 194 191 187 183 183 189 194 198 202 205 209 211 203 189 182 179 177 178 174 169 171 179 188 201 216 233 256 268 267 273 275 271 268 266 263 260 254 251 251 248 246 250 254 256 259 261 261 263 264 265 266 267 267 267 266 265 265 263 262 261 261 261 262 261 261
125 157 177 122 153 201 215 177 169 145 185 219 211 198 190 190 191 191 193 195 195 194 190 187 184 185 191 196 198 202 206 205 199 188 183 186 188 189 189 187 186 193 203 215 234 248 262 276 279 275 276 274 268 266 264 261 258 255 253 251 249 249 251 253 255 259 261 263 266 268 269 271 271 271 271 270 269 268 267 265 264 263 263 263 262 263
164 177 173 154 181 217 177 173 178 173 174 200 200 196 193 196 198 201 202 202 199 194 192 193 193 190 190 191 191 192 193 193 191 188 187 190 194 195 197 199 202 211 225 239 253 262 268 269 268 269 272 270 267 266 264 259 256 254 252 251 250 250 251 253 256 259 262 266 269 271 272 273 273 273 273 272 272 271 270 268 267 267 267 266 266 265